owner,sensor,date,latitude,longitude,vertical_datum,sea_water_practical_salinity,qcFlag 
TABS,ioos:station:wmo:42049:1,2016-04-01T00:00:00Z,28.3507,-96.0058,2.0,28.5665,11111222 
TABS,ioos:station:wmo:42049:1,2016-04-01T01:00:00Z,28.3507,-96.0058,2.0,28.5524,11111222 
TABS,ioos:station:wmo:42049:1,2016-04-01T01:30:00Z,28.3507,-96.0058,2.0,28.5104,11111222 
TABS,ioos:station:wmo:42049:1,2016-04-01T02:00:00Z,28.3507,-96.0058,2.0,28.4083,11111222 
TABS,ioos:station:wmo:42049:1,2016-04-01T03:00:00Z,28.3507,-96.0058,2.0,28.1658,11111222 
TABS,ioos:station:wmo:42049:1,2016-04-01T04:00:00Z,28.3507,-96.0058,2.0,27.8696,11111222 
TABS,ioos:station:wmo:42049:1,2016-04-01T05:00:00Z,28.3507,-96.0058,2.0,27.9379,11111222 
TABS,ioos:station:wmo:42049:1,2016-04-01T06:00:00Z,28.3507,-96.0058,2.0,28.1042,11111222 
TABS,ioos:station:wmo:42049:1,2016-04-01T07:00:00Z,28.3507,-96.0058,2.0,28.0519,11111222 
TABS,ioos:station:wmo:42049:1,2016-04-01T08:00:00Z,28.3507,-96.0058,2.0,27.9536,11111222 
TABS,ioos:station:wmo:42049:1,2016-04-01T08:30:00Z,28.3507,-96.0058,2.0,27.8727,11111222 
TABS,ioos:station:wmo:42049:1,2016-04-01T09:00:00Z,28.3507,-96.0058,2.0,27.5717,11111222 
TABS,ioos:station:wmo:42049:1,2016-04-01T09:30:00Z,28.3507,-96.0058,2.0,27.5466,11111222 
TABS,ioos:station:wmo:42049:1,2016-04-01T10:00:00Z,28.3507,-96.0058,2.0,26.9485,11111222 
TABS,ioos:station:wmo:42049:1,2016-04-01T10:30:00Z,28.3507,-96.0058,2.0,26.7535,11111222 
TABS,ioos:station:wmo:42049:1,2016-04-01T11:00:00Z,28.3507,-96.0058,2.0,26.7452,11111222 
TABS,ioos:station:wmo:42049:1,2016-04-01T11:30:00Z,28.3507,-96.0058,2.0,27.0021,11111222 
TABS,ioos:station:wmo:42049:1,2016-04-01T12:00:00Z,28.3507,-96.0058,2.0,27.3205,11111222 
TABS,ioos:station:wmo:42049:1,2016-04-01T13:00:00Z,28.3507,-96.0058,2.0,27.9041,11111222 
TABS,ioos:station:wmo:42049:1,2016-04-01T13:30:00Z,28.3507,-96.0058,2.0,27.9883,11111222 
TABS,ioos:station:wmo:42049:1,2016-04-01T14:00:00Z,28.3507,-96.0058,2.0,27.9539,11111222 
TABS,ioos:station:wmo:42049:1,2016-04-01T14:30:00Z,28.3507,-96.0058,2.0,27.9793,11111222 
TABS,ioos:station:wmo:42049:1,2016-04-01T15:00:00Z,28.3507,-96.0058,2.0,27.7381,11111222 
TABS,ioos:station:wmo:42049:1,2016-04-01T15:30:00Z,28.3507,-96.0058,2.0,27.9137,11111222 
TABS,ioos:station:wmo:42049:1,2016-04-01T16:00:00Z,28.3507,-96.0058,2.0,28.0362,11111222 
TABS,ioos:station:wmo:42049:1,2016-04-01T16:30:00Z,28.3507,-96.0058,2.0,28.1839,11111222 
TABS,ioos:station:wmo:42049:1,2016-04-01T17:00:00Z,28.3507,-96.0058,2.0,28.2099,11111222 
TABS,ioos:station:wmo:42049:1,2016-04-01T17:30:00Z,28.3507,-96.0058,2.0,28.0653,11111222 
TABS,ioos:station:wmo:42049:1,2016-04-01T18:00:00Z,28.3507,-96.0058,2.0,28.0082,11111222 
TABS,ioos:station:wmo:42049:1,2016-04-01T18:30:00Z,28.3507,-96.0058,2.0,28.5815,11111222 
TABS,ioos:station:wmo:42049:1,2016-04-01T19:00:00Z,28.3507,-96.0058,2.0,28.7722,11111222 
TABS,ioos:station:wmo:42049:1,2016-04-01T19:30:00Z,28.3507,-96.0058,2.0,29.1007,11111222 
TABS,ioos:station:wmo:42049:1,2016-04-01T20:00:00Z,28.3507,-96.0058,2.0,29.1867,11111222 
TABS,ioos:station:wmo:42049:1,2016-04-01T20:30:00Z,28.3507,-96.0058,2.0,29.1492,11111222 
TABS,ioos:station:wmo:42049:1,2016-04-01T21:00:00Z,28.3507,-96.0058,2.0,29.1982,11111222 
TABS,ioos:station:wmo:42049:1,2016-04-01T21:30:00Z,28.3507,-96.0058,2.0,29.2658,11111222 
TABS,ioos:station:wmo:42049:1,2016-04-01T22:00:00Z,28.3507,-96.0058,2.0,29.0739,11111222 
TABS,ioos:station:wmo:42049:1,2016-04-01T22:30:00Z,28.3507,-96.0058,2.0,28.8875,11111222 
TABS,ioos:station:wmo:42049:1,2016-04-01T23:00:00Z,28.3507,-96.0058,2.0,28.7011,11111222 
TABS,ioos:station:wmo:42049:1,2016-04-01T23:30:00Z,28.3507,-96.0058,2.0,29.0898,11111222 
TABS,ioos:station:wmo:42049:1,2016-04-02T00:00:00Z,28.3507,-96.0058,2.0,29.0814,11111222 
TABS,ioos:station:wmo:42049:1,2016-04-02T00:30:00Z,28.3507,-96.0058,2.0,29.2917,11111222 
TABS,ioos:station:wmo:42049:1,2016-04-02T01:00:00Z,28.3507,-96.0058,2.0,29.3577,11111222 
TABS,ioos:station:wmo:42049:1,2016-04-02T01:30:00Z,28.3507,-96.0058,2.0,29.6832,11111222 
TABS,ioos:station:wmo:42049:1,2016-04-02T02:00:00Z,28.3507,-96.0058,2.0,29.8983,11111222 
TABS,ioos:station:wmo:42049:1,2016-04-02T02:30:00Z,28.3507,-96.0058,2.0,29.9847,11111222 
TABS,ioos:station:wmo:42049:1,2016-04-02T03:00:00Z,28.3507,-96.0058,2.0,29.656,11111222 
TABS,ioos:station:wmo:42049:1,2016-04-02T03:30:00Z,28.3507,-96.0058,2.0,30.3397,11111222 
TABS,ioos:station:wmo:42049:1,2016-04-02T04:00:00Z,28.3507,-96.0058,2.0,29.8816,11111222 
TABS,ioos:station:wmo:42049:1,2016-04-02T04:30:00Z,28.3507,-96.0058,2.0,29.2216,11111222 
TABS,ioos:station:wmo:42049:1,2016-04-02T05:00:00Z,28.3507,-96.0058,2.0,28.9976,11111222 
TABS,ioos:station:wmo:42049:1,2016-04-02T05:30:00Z,28.3507,-96.0058,2.0,29.6419,11111222 
TABS,ioos:station:wmo:42049:1,2016-04-02T06:00:00Z,28.3507,-96.0058,2.0,28.9032,11111222 
TABS,ioos:station:wmo:42049:1,2016-04-02T06:30:00Z,28.3507,-96.0058,2.0,29.1948,11111222 
TABS,ioos:station:wmo:42049:1,2016-04-02T07:00:00Z,28.3507,-96.0058,2.0,28.3028,11111222 
TABS,ioos:station:wmo:42049:1,2016-04-02T07:30:00Z,28.3507,-96.0058,2.0,27.5602,11111222 
TABS,ioos:station:wmo:42049:1,2016-04-02T08:00:00Z,28.3507,-96.0058,2.0,26.7803,11111222 
TABS,ioos:station:wmo:42049:1,2016-04-02T09:00:00Z,28.3507,-96.0058,2.0,26.5442,11111222 
TABS,ioos:station:wmo:42049:1,2016-04-02T09:30:00Z,28.3507,-96.0058,2.0,26.369,11111222 
TABS,ioos:station:wmo:42049:1,2016-04-02T10:00:00Z,28.3507,-96.0058,2.0,26.3611,11111222 
TABS,ioos:station:wmo:42049:1,2016-04-02T10:30:00Z,28.3507,-96.0058,2.0,26.1108,11111222 
TABS,ioos:station:wmo:42049:1,2016-04-02T11:00:00Z,28.3507,-96.0058,2.0,26.1519,11111222 
TABS,ioos:station:wmo:42049:1,2016-04-02T11:30:00Z,28.3507,-96.0058,2.0,26.3294,11111222 
TABS,ioos:station:wmo:42049:1,2016-04-02T12:00:00Z,28.3507,-96.0058,2.0,26.6559,11111222 
TABS,ioos:station:wmo:42049:1,2016-04-02T12:30:00Z,28.3507,-96.0058,2.0,27.032,11111222 
TABS,ioos:station:wmo:42049:1,2016-04-02T13:00:00Z,28.3507,-96.0058,2.0,27.5264,11111222 
TABS,ioos:station:wmo:42049:1,2016-04-02T13:30:00Z,28.3507,-96.0058,2.0,28.2409,11111222 
TABS,ioos:station:wmo:42049:1,2016-04-02T14:00:00Z,28.3507,-96.0058,2.0,28.5414,11111222 
TABS,ioos:station:wmo:42049:1,2016-04-02T14:30:00Z,28.3507,-96.0058,2.0,29.04,11111222 
TABS,ioos:station:wmo:42049:1,2016-04-02T15:00:00Z,28.3507,-96.0058,2.0,29.4622,11111222 
TABS,ioos:station:wmo:42049:1,2016-04-02T15:30:00Z,28.3507,-96.0058,2.0,30.0066,11111222 
TABS,ioos:station:wmo:42049:1,2016-04-02T16:00:00Z,28.3507,-96.0058,2.0,29.6888,11111222 
TABS,ioos:station:wmo:42049:1,2016-04-02T16:30:00Z,28.3507,-96.0058,2.0,30.0502,11111222 
TABS,ioos:station:wmo:42049:1,2016-04-02T17:00:00Z,28.3507,-96.0058,2.0,29.5164,11111222 
TABS,ioos:station:wmo:42049:1,2016-04-02T17:30:00Z,28.3507,-96.0058,2.0,30.2069,11111222 
TABS,ioos:station:wmo:42049:1,2016-04-02T18:00:00Z,28.3507,-96.0058,2.0,29.0893,11111222 
TABS,ioos:station:wmo:42049:1,2016-04-02T19:00:00Z,28.3507,-96.0058,2.0,28.9493,11111222 
TABS,ioos:station:wmo:42049:1,2016-04-02T19:30:00Z,28.3507,-96.0058,2.0,28.4589,11111222 
TABS,ioos:station:wmo:42049:1,2016-04-02T20:00:00Z,28.3507,-96.0058,2.0,28.1228,11111222 
TABS,ioos:station:wmo:42049:1,2016-04-02T20:30:00Z,28.3507,-96.0058,2.0,27.9646,11111222 
TABS,ioos:station:wmo:42049:1,2016-04-02T21:00:00Z,28.3507,-96.0058,2.0,28.0132,11111222 
TABS,ioos:station:wmo:42049:1,2016-04-02T21:30:00Z,28.3507,-96.0058,2.0,27.9941,11111222 
TABS,ioos:station:wmo:42049:1,2016-04-02T22:00:00Z,28.3507,-96.0058,2.0,28.5391,11111222 
TABS,ioos:station:wmo:42049:1,2016-04-02T22:30:00Z,28.3507,-96.0058,2.0,28.8447,11111222 
TABS,ioos:station:wmo:42049:1,2016-04-02T23:00:00Z,28.3507,-96.0058,2.0,28.5705,11111222 
TABS,ioos:station:wmo:42049:1,2016-04-02T23:30:00Z,28.3507,-96.0058,2.0,28.4855,11111222 
TABS,ioos:station:wmo:42049:1,2016-04-03T00:00:00Z,28.3507,-96.0058,2.0,27.8613,11111222 
TABS,ioos:station:wmo:42049:1,2016-04-03T00:30:00Z,28.3507,-96.0058,2.0,27.7603,11111222 
TABS,ioos:station:wmo:42049:1,2016-04-03T01:00:00Z,28.3507,-96.0058,2.0,28.9221,11111222 
TABS,ioos:station:wmo:42049:1,2016-04-03T01:30:00Z,28.3507,-96.0058,2.0,28.9784,11111222 
TABS,ioos:station:wmo:42049:1,2016-04-03T02:00:00Z,28.3507,-96.0058,2.0,28.4785,11111222 
TABS,ioos:station:wmo:42049:1,2016-04-03T02:30:00Z,28.3507,-96.0058,2.0,28.3501,11111222 
TABS,ioos:station:wmo:42049:1,2016-04-03T03:00:00Z,28.3507,-96.0058,2.0,28.6123,11111222 
TABS,ioos:station:wmo:42049:1,2016-04-03T03:30:00Z,28.3507,-96.0058,2.0,27.881,11111222 
TABS,ioos:station:wmo:42049:1,2016-04-03T04:00:00Z,28.3507,-96.0058,2.0,27.0049,11111222 
TABS,ioos:station:wmo:42049:1,2016-04-03T04:30:00Z,28.3507,-96.0058,2.0,27.6537,11111222 
TABS,ioos:station:wmo:42049:1,2016-04-03T05:00:00Z,28.3507,-96.0058,2.0,27.6061,11111222 
TABS,ioos:station:wmo:42049:1,2016-04-03T05:30:00Z,28.3507,-96.0058,2.0,27.8518,11111222 
TABS,ioos:station:wmo:42049:1,2016-04-03T06:00:00Z,28.3507,-96.0058,2.0,28.1219,11111222 
TABS,ioos:station:wmo:42049:1,2016-04-03T06:30:00Z,28.3507,-96.0058,2.0,28.3514,11111222 
TABS,ioos:station:wmo:42049:1,2016-04-03T07:00:00Z,28.3507,-96.0058,2.0,28.2697,11111222 
TABS,ioos:station:wmo:42049:1,2016-04-03T07:30:00Z,28.3507,-96.0058,2.0,28.2093,11111222 
TABS,ioos:station:wmo:42049:1,2016-04-03T08:00:00Z,28.3507,-96.0058,2.0,28.3659,11111222 
TABS,ioos:station:wmo:42049:1,2016-04-03T08:30:00Z,28.3507,-96.0058,2.0,28.0749,11111222 
TABS,ioos:station:wmo:42049:1,2016-04-03T09:00:00Z,28.3507,-96.0058,2.0,28.5052,11111222 
TABS,ioos:station:wmo:42049:1,2016-04-03T09:30:00Z,28.3507,-96.0058,2.0,28.3139,11111222 
TABS,ioos:station:wmo:42049:1,2016-04-03T10:00:00Z,28.3507,-96.0058,2.0,28.2809,11111222 
TABS,ioos:station:wmo:42049:1,2016-04-03T10:30:00Z,28.3507,-96.0058,2.0,27.9751,11111222 
TABS,ioos:station:wmo:42049:1,2016-04-03T11:00:00Z,28.3507,-96.0058,2.0,27.7981,11111222 
TABS,ioos:station:wmo:42049:1,2016-04-03T11:30:00Z,28.3507,-96.0058,2.0,27.5771,11111222 
TABS,ioos:station:wmo:42049:1,2016-04-03T12:00:00Z,28.3507,-96.0058,2.0,27.4263,11111222 
TABS,ioos:station:wmo:42049:1,2016-04-03T12:30:00Z,28.3507,-96.0058,2.0,27.3648,11111222 
TABS,ioos:station:wmo:42049:1,2016-04-03T13:00:00Z,28.3507,-96.0058,2.0,27.3559,11111222 
TABS,ioos:station:wmo:42049:1,2016-04-03T13:30:00Z,28.3507,-96.0058,2.0,27.1627,11111222 
TABS,ioos:station:wmo:42049:1,2016-04-03T14:00:00Z,28.3507,-96.0058,2.0,27.1317,11111222 
TABS,ioos:station:wmo:42049:1,2016-04-03T14:30:00Z,28.3507,-96.0058,2.0,27.03,11111222 
TABS,ioos:station:wmo:42049:1,2016-04-03T15:00:00Z,28.3507,-96.0058,2.0,26.9768,11111222 
TABS,ioos:station:wmo:42049:1,2016-04-03T15:30:00Z,28.3507,-96.0058,2.0,27.0683,11111222 
TABS,ioos:station:wmo:42049:1,2016-04-03T16:00:00Z,28.3507,-96.0058,2.0,27.0277,11111222 
TABS,ioos:station:wmo:42049:1,2016-04-03T16:30:00Z,28.3507,-96.0058,2.0,26.9388,11111222 
TABS,ioos:station:wmo:42049:1,2016-04-03T17:00:00Z,28.3507,-96.0058,2.0,26.9048,11111222 
TABS,ioos:station:wmo:42049:1,2016-04-03T17:30:00Z,28.3507,-96.0058,2.0,26.8342,11111222 
TABS,ioos:station:wmo:42049:1,2016-04-03T18:00:00Z,28.3507,-96.0058,2.0,26.7472,11111222 
TABS,ioos:station:wmo:42049:1,2016-04-03T18:30:00Z,28.3507,-96.0058,2.0,26.7536,11111222 
TABS,ioos:station:wmo:42049:1,2016-04-03T19:00:00Z,28.3507,-96.0058,2.0,26.8174,11111222 
TABS,ioos:station:wmo:42049:1,2016-04-03T19:30:00Z,28.3507,-96.0058,2.0,26.8013,11111222 
TABS,ioos:station:wmo:42049:1,2016-04-03T20:00:00Z,28.3507,-96.0058,2.0,26.9184,11111222 
TABS,ioos:station:wmo:42049:1,2016-04-03T20:30:00Z,28.3507,-96.0058,2.0,26.7379,11111222 
TABS,ioos:station:wmo:42049:1,2016-04-03T21:00:00Z,28.3507,-96.0058,2.0,26.846,11111222 
TABS,ioos:station:wmo:42049:1,2016-04-03T21:30:00Z,28.3507,-96.0058,2.0,26.5121,11111222 
TABS,ioos:station:wmo:42049:1,2016-04-03T22:00:00Z,28.3507,-96.0058,2.0,26.7182,11111222 
TABS,ioos:station:wmo:42049:1,2016-04-03T22:30:00Z,28.3507,-96.0058,2.0,27.1366,11111222 
TABS,ioos:station:wmo:42049:1,2016-04-03T23:00:00Z,28.3507,-96.0058,2.0,27.1707,11111222 
TABS,ioos:station:wmo:42049:1,2016-04-03T23:30:00Z,28.3507,-96.0058,2.0,27.1181,11111222 
TABS,ioos:station:wmo:42049:1,2016-04-04T00:00:00Z,28.3507,-96.0058,2.0,26.8906,11111222 
TABS,ioos:station:wmo:42049:1,2016-04-04T00:30:00Z,28.3507,-96.0058,2.0,26.8165,11111222 
TABS,ioos:station:wmo:42049:1,2016-04-04T01:00:00Z,28.3507,-96.0058,2.0,26.8709,11111222 
TABS,ioos:station:wmo:42049:1,2016-04-04T01:30:00Z,28.3507,-96.0058,2.0,26.8249,11111222 
TABS,ioos:station:wmo:42049:1,2016-04-04T02:00:00Z,28.3507,-96.0058,2.0,26.7206,11111222 
TABS,ioos:station:wmo:42049:1,2016-04-04T02:30:00Z,28.3507,-96.0058,2.0,26.5919,11111222 
TABS,ioos:station:wmo:42049:1,2016-04-04T03:00:00Z,28.3507,-96.0058,2.0,26.6044,11111222 
TABS,ioos:station:wmo:42049:1,2016-04-04T03:30:00Z,28.3507,-96.0058,2.0,26.5625,11111222 
TABS,ioos:station:wmo:42049:1,2016-04-04T04:00:00Z,28.3507,-96.0058,2.0,26.5908,11111222 
TABS,ioos:station:wmo:42049:1,2016-04-04T04:30:00Z,28.3507,-96.0058,2.0,26.5908,11111222 
TABS,ioos:station:wmo:42049:1,2016-04-04T05:00:00Z,28.3507,-96.0058,2.0,26.7,11111222 
TABS,ioos:station:wmo:42049:1,2016-04-04T05:30:00Z,28.3507,-96.0058,2.0,26.7971,11111222 
TABS,ioos:station:wmo:42049:1,2016-04-04T06:00:00Z,28.3507,-96.0058,2.0,26.9383,11111222 
TABS,ioos:station:wmo:42049:1,2016-04-04T06:30:00Z,28.3507,-96.0058,2.0,27.0041,11111222 
TABS,ioos:station:wmo:42049:1,2016-04-04T07:00:00Z,28.3507,-96.0058,2.0,27.213,11111222 
TABS,ioos:station:wmo:42049:1,2016-04-04T07:30:00Z,28.3507,-96.0058,2.0,27.2456,11111222 
TABS,ioos:station:wmo:42049:1,2016-04-04T08:00:00Z,28.3507,-96.0058,2.0,27.2986,11111222 
TABS,ioos:station:wmo:42049:1,2016-04-04T08:30:00Z,28.3507,-96.0058,2.0,28.0738,11111222 
TABS,ioos:station:wmo:42049:1,2016-04-04T09:00:00Z,28.3507,-96.0058,2.0,28.1371,11111222 
TABS,ioos:station:wmo:42049:1,2016-04-04T09:30:00Z,28.3507,-96.0058,2.0,27.9261,11111222 
TABS,ioos:station:wmo:42049:1,2016-04-04T10:00:00Z,28.3507,-96.0058,2.0,27.2458,11111222 
TABS,ioos:station:wmo:42049:1,2016-04-04T10:30:00Z,28.3507,-96.0058,2.0,25.9715,11111222 
TABS,ioos:station:wmo:42049:1,2016-04-04T11:00:00Z,28.3507,-96.0058,2.0,25.8169,11111222 
TABS,ioos:station:wmo:42049:1,2016-04-04T11:30:00Z,28.3507,-96.0058,2.0,25.7058,11111222 
TABS,ioos:station:wmo:42049:1,2016-04-04T12:00:00Z,28.3507,-96.0058,2.0,25.6667,11111222 
TABS,ioos:station:wmo:42049:1,2016-04-04T12:30:00Z,28.3507,-96.0058,2.0,25.5634,11111222 
TABS,ioos:station:wmo:42049:1,2016-04-04T13:00:00Z,28.3507,-96.0058,2.0,25.4555,11111222 
TABS,ioos:station:wmo:42049:1,2016-04-04T13:30:00Z,28.3507,-96.0058,2.0,25.2801,11111222 
TABS,ioos:station:wmo:42049:1,2016-04-04T14:00:00Z,28.3507,-96.0058,2.0,25.1235,11111222 
TABS,ioos:station:wmo:42049:1,2016-04-04T14:30:00Z,28.3507,-96.0058,2.0,25.1131,11111222 
TABS,ioos:station:wmo:42049:1,2016-04-04T15:00:00Z,28.3507,-96.0058,2.0,24.9719,11111222 
TABS,ioos:station:wmo:42049:1,2016-04-04T15:30:00Z,28.3507,-96.0058,2.0,24.9143,11111222 
TABS,ioos:station:wmo:42049:1,2016-04-04T16:00:00Z,28.3507,-96.0058,2.0,24.8637,11111222 
TABS,ioos:station:wmo:42049:1,2016-04-04T16:30:00Z,28.3507,-96.0058,2.0,24.8404,11111222 
TABS,ioos:station:wmo:42049:1,2016-04-04T17:00:00Z,28.3507,-96.0058,2.0,24.8481,11111222 
TABS,ioos:station:wmo:42049:1,2016-04-04T17:30:00Z,28.3507,-96.0058,2.0,24.7766,11111222 
TABS,ioos:station:wmo:42049:1,2016-04-04T18:00:00Z,28.3507,-96.0058,2.0,24.7086,11111222 
TABS,ioos:station:wmo:42049:1,2016-04-04T18:30:00Z,28.3507,-96.0058,2.0,24.7023,11111222 
TABS,ioos:station:wmo:42049:1,2016-04-04T19:00:00Z,28.3507,-96.0058,2.0,24.657,11111222 
TABS,ioos:station:wmo:42049:1,2016-04-04T19:30:00Z,28.3507,-96.0058,2.0,24.6167,11111222 
TABS,ioos:station:wmo:42049:1,2016-04-04T20:00:00Z,28.3507,-96.0058,2.0,24.6253,11111222 
TABS,ioos:station:wmo:42049:1,2016-04-04T20:30:00Z,28.3507,-96.0058,2.0,24.6164,11111222 
TABS,ioos:station:wmo:42049:1,2016-04-04T21:00:00Z,28.3507,-96.0058,2.0,24.6251,11111222 
TABS,ioos:station:wmo:42049:1,2016-04-04T21:30:00Z,28.3507,-96.0058,2.0,24.6168,11111222 
TABS,ioos:station:wmo:42049:1,2016-04-04T22:00:00Z,28.3507,-96.0058,2.0,24.5934,11111222 
TABS,ioos:station:wmo:42049:1,2016-04-04T22:30:00Z,28.3507,-96.0058,2.0,24.6169,11111222 
TABS,ioos:station:wmo:42049:1,2016-04-04T23:00:00Z,28.3507,-96.0058,2.0,24.6347,11111222 
TABS,ioos:station:wmo:42049:1,2016-04-04T23:30:00Z,28.3507,-96.0058,2.0,24.6625,11111222 
TABS,ioos:station:wmo:42049:1,2016-04-05T00:00:00Z,28.3507,-96.0058,2.0,24.6539,11111222 
TABS,ioos:station:wmo:42049:1,2016-04-05T00:30:00Z,28.3507,-96.0058,2.0,24.5969,11111222 
TABS,ioos:station:wmo:42049:1,2016-04-05T01:00:00Z,28.3507,-96.0058,2.0,24.5902,11111222 
TABS,ioos:station:wmo:42049:1,2016-04-05T01:30:00Z,28.3507,-96.0058,2.0,24.5623,11111222 
TABS,ioos:station:wmo:42049:1,2016-04-05T02:00:00Z,28.3507,-96.0058,2.0,24.5214,11111222 
TABS,ioos:station:wmo:42049:1,2016-04-05T02:30:00Z,28.3507,-96.0058,2.0,24.5231,11111222 
TABS,ioos:station:wmo:42049:1,2016-04-05T03:00:00Z,28.3507,-96.0058,2.0,24.5371,11111222 
TABS,ioos:station:wmo:42049:1,2016-04-05T03:30:00Z,28.3507,-96.0058,2.0,24.4849,11111222 
TABS,ioos:station:wmo:42049:1,2016-04-05T04:00:00Z,28.3507,-96.0058,2.0,24.4507,11111222 
TABS,ioos:station:wmo:42049:1,2016-04-05T04:30:00Z,28.3507,-96.0058,2.0,24.4473,11111222 
TABS,ioos:station:wmo:42049:1,2016-04-05T05:00:00Z,28.3507,-96.0058,2.0,24.412,11111222 
TABS,ioos:station:wmo:42049:1,2016-04-05T05:30:00Z,28.3507,-96.0058,2.0,24.371,11111222 
TABS,ioos:station:wmo:42049:1,2016-04-05T06:00:00Z,28.3507,-96.0058,2.0,24.3748,11111222 
TABS,ioos:station:wmo:42049:1,2016-04-05T06:30:00Z,28.3507,-96.0058,2.0,24.3681,11111222 
TABS,ioos:station:wmo:42049:1,2016-04-05T07:00:00Z,28.3507,-96.0058,2.0,24.3436,11111222 
TABS,ioos:station:wmo:42049:1,2016-04-05T07:30:00Z,28.3507,-96.0058,2.0,24.3287,11111222 
TABS,ioos:station:wmo:42049:1,2016-04-05T08:00:00Z,28.3507,-96.0058,2.0,24.2903,11111222 
TABS,ioos:station:wmo:42049:1,2016-04-05T08:30:00Z,28.3507,-96.0058,2.0,24.2296,11111222 
TABS,ioos:station:wmo:42049:1,2016-04-05T09:00:00Z,28.3507,-96.0058,2.0,24.2559,11111222 
TABS,ioos:station:wmo:42049:1,2016-04-05T09:30:00Z,28.3507,-96.0058,2.0,24.2692,11111222 
TABS,ioos:station:wmo:42049:1,2016-04-05T10:00:00Z,28.3507,-96.0058,2.0,24.2905,11111222 
TABS,ioos:station:wmo:42049:1,2016-04-05T10:30:00Z,28.3507,-96.0058,2.0,24.2606,11111222 
TABS,ioos:station:wmo:42049:1,2016-04-05T11:00:00Z,28.3507,-96.0058,2.0,24.2462,11111222 
TABS,ioos:station:wmo:42049:1,2016-04-05T11:30:00Z,28.3507,-96.0058,2.0,24.238,11111222 
TABS,ioos:station:wmo:42049:1,2016-04-05T12:00:00Z,28.3507,-96.0058,2.0,24.2655,11111222 
TABS,ioos:station:wmo:42049:1,2016-04-05T12:30:00Z,28.3507,-96.0058,2.0,24.3489,11111222 
TABS,ioos:station:wmo:42049:1,2016-04-05T13:00:00Z,28.3507,-96.0058,2.0,24.4284,11111222 
TABS,ioos:station:wmo:42049:1,2016-04-05T13:30:00Z,28.3507,-96.0058,2.0,24.5447,11111222 
TABS,ioos:station:wmo:42049:1,2016-04-05T14:00:00Z,28.3507,-96.0058,2.0,24.5299,11111222 
TABS,ioos:station:wmo:42049:1,2016-04-05T14:30:00Z,28.3507,-96.0058,2.0,24.5369,11111222 
TABS,ioos:station:wmo:42049:1,2016-04-05T15:00:00Z,28.3507,-96.0058,2.0,24.5804,11111222 
TABS,ioos:station:wmo:42049:1,2016-04-05T15:30:00Z,28.3507,-96.0058,2.0,24.5827,11111222 
TABS,ioos:station:wmo:42049:1,2016-04-05T16:00:00Z,28.3507,-96.0058,2.0,24.5634,11111222 
TABS,ioos:station:wmo:42049:1,2016-04-05T16:30:00Z,28.3507,-96.0058,2.0,24.5716,11111222 
TABS,ioos:station:wmo:42049:1,2016-04-05T17:00:00Z,28.3507,-96.0058,2.0,24.6042,11111222 
TABS,ioos:station:wmo:42049:1,2016-04-05T17:30:00Z,28.3507,-96.0058,2.0,24.6254,11111222 
TABS,ioos:station:wmo:42049:1,2016-04-05T18:00:00Z,28.3507,-96.0058,2.0,24.6775,11111222 
TABS,ioos:station:wmo:42049:1,2016-04-05T18:30:00Z,28.3507,-96.0058,2.0,24.7349,11111222 
TABS,ioos:station:wmo:42049:1,2016-04-05T19:00:00Z,28.3507,-96.0058,2.0,24.7441,11111222 
TABS,ioos:station:wmo:42049:1,2016-04-05T19:30:00Z,28.3507,-96.0058,2.0,24.7701,11111222 
TABS,ioos:station:wmo:42049:1,2016-04-05T20:00:00Z,28.3507,-96.0058,2.0,24.7654,11111222 
TABS,ioos:station:wmo:42049:1,2016-04-05T20:30:00Z,28.3507,-96.0058,2.0,24.7813,11111222 
TABS,ioos:station:wmo:42049:1,2016-04-05T21:00:00Z,28.3507,-96.0058,2.0,24.7929,11111222 
TABS,ioos:station:wmo:42049:1,2016-04-05T21:30:00Z,28.3507,-96.0058,2.0,24.8582,11111222 
TABS,ioos:station:wmo:42049:1,2016-04-05T22:00:00Z,28.3507,-96.0058,2.0,24.8114,11111222 
TABS,ioos:station:wmo:42049:1,2016-04-05T22:30:00Z,28.3507,-96.0058,2.0,24.8432,11111222 
TABS,ioos:station:wmo:42049:1,2016-04-05T23:00:00Z,28.3507,-96.0058,2.0,24.8793,11111222 
TABS,ioos:station:wmo:42049:1,2016-04-05T23:30:00Z,28.3507,-96.0058,2.0,24.9774,11111222 
TABS,ioos:station:wmo:42049:1,2016-04-06T00:00:00Z,28.3507,-96.0058,2.0,24.9015,11111222 
TABS,ioos:station:wmo:42049:1,2016-04-06T00:30:00Z,28.3507,-96.0058,2.0,24.8636,11111222 
TABS,ioos:station:wmo:42049:1,2016-04-06T01:00:00Z,28.3507,-96.0058,2.0,24.8787,11111222 
TABS,ioos:station:wmo:42049:1,2016-04-06T01:30:00Z,28.3507,-96.0058,2.0,24.8828,11111222 
TABS,ioos:station:wmo:42049:1,2016-04-06T02:00:00Z,28.3507,-96.0058,2.0,24.9346,11111222 
TABS,ioos:station:wmo:42049:1,2016-04-06T02:30:00Z,28.3507,-96.0058,2.0,24.9987,11111222 
TABS,ioos:station:wmo:42049:1,2016-04-06T03:00:00Z,28.3507,-96.0058,2.0,25.0277,11111222 
TABS,ioos:station:wmo:42049:1,2016-04-06T03:30:00Z,28.3507,-96.0058,2.0,25.0079,11111222 
TABS,ioos:station:wmo:42049:1,2016-04-06T04:00:00Z,28.3507,-96.0058,2.0,25.0061,11111222 
TABS,ioos:station:wmo:42049:1,2016-04-06T04:30:00Z,28.3507,-96.0058,2.0,24.9735,11111222 
TABS,ioos:station:wmo:42049:1,2016-04-06T05:00:00Z,28.3507,-96.0058,2.0,24.9392,11111222 
TABS,ioos:station:wmo:42049:1,2016-04-06T05:30:00Z,28.3507,-96.0058,2.0,24.9324,11111222 
TABS,ioos:station:wmo:42049:1,2016-04-06T06:00:00Z,28.3507,-96.0058,2.0,24.9332,11111222 
TABS,ioos:station:wmo:42049:1,2016-04-06T06:30:00Z,28.3507,-96.0058,2.0,24.9107,11111222 
TABS,ioos:station:wmo:42049:1,2016-04-06T07:00:00Z,28.3507,-96.0058,2.0,24.9187,11111222 
TABS,ioos:station:wmo:42049:1,2016-04-06T07:30:00Z,28.3507,-96.0058,2.0,24.9085,11111222 
TABS,ioos:station:wmo:42049:1,2016-04-06T08:00:00Z,28.3507,-96.0058,2.0,24.9395,11111222 
TABS,ioos:station:wmo:42049:1,2016-04-06T08:30:00Z,28.3507,-96.0058,2.0,24.9624,11111222 
TABS,ioos:station:wmo:42049:1,2016-04-06T09:00:00Z,28.3507,-96.0058,2.0,25.0099,11111222 
TABS,ioos:station:wmo:42049:1,2016-04-06T09:30:00Z,28.3507,-96.0058,2.0,25.062,11111222 
TABS,ioos:station:wmo:42049:1,2016-04-06T10:00:00Z,28.3507,-96.0058,2.0,25.1251,11111222 
TABS,ioos:station:wmo:42049:1,2016-04-06T10:30:00Z,28.3507,-96.0058,2.0,25.2201,11111222 
TABS,ioos:station:wmo:42049:1,2016-04-06T11:00:00Z,28.3507,-96.0058,2.0,25.2705,11111222 
TABS,ioos:station:wmo:42049:1,2016-04-06T11:30:00Z,28.3507,-96.0058,2.0,25.3127,11111222 
TABS,ioos:station:wmo:42049:1,2016-04-06T12:00:00Z,28.3507,-96.0058,2.0,25.3108,11111222 
TABS,ioos:station:wmo:42049:1,2016-04-06T12:30:00Z,28.3507,-96.0058,2.0,25.3793,11111222 
TABS,ioos:station:wmo:42049:1,2016-04-06T13:00:00Z,28.3507,-96.0058,2.0,25.4544,11111222 
TABS,ioos:station:wmo:42049:1,2016-04-06T13:30:00Z,28.3507,-96.0058,2.0,25.6228,11111222 
TABS,ioos:station:wmo:42049:1,2016-04-06T14:00:00Z,28.3507,-96.0058,2.0,25.7098,11111222 
TABS,ioos:station:wmo:42049:1,2016-04-06T14:30:00Z,28.3507,-96.0058,2.0,25.8617,11111222 
TABS,ioos:station:wmo:42049:1,2016-04-06T15:00:00Z,28.3507,-96.0058,2.0,26.0519,11111222 
TABS,ioos:station:wmo:42049:1,2016-04-06T15:30:00Z,28.3507,-96.0058,2.0,26.1698,11111222 
TABS,ioos:station:wmo:42049:1,2016-04-06T16:00:00Z,28.3507,-96.0058,2.0,26.1891,11111222 
TABS,ioos:station:wmo:42049:1,2016-04-06T16:30:00Z,28.3507,-96.0058,2.0,26.2738,11111222 
TABS,ioos:station:wmo:42049:1,2016-04-06T17:00:00Z,28.3507,-96.0058,2.0,26.3263,11111222 